カタログに戻る

STARLINK-34984

運用中通信SSO
NORAD 65290·PAYLOAD·🇺🇸 United States

打ち上げ Aug 22, 2025 から Vandenberg Space Force Base

Loading…

次のパス (今後24時間)

TLE

最新Source: CelesTrak SupGP

元期: Sep 14, 2026, 15:31 UTC

1 65290C 25184T   26257.64701389  .00006158  00000+0  19130-3 0  2575
2 65290  97.2843 305.6995 0000919  96.6865  35.3043 15.33413068    16

AllMySatでSTARLINK-34984をリアルタイム追跡

Download on the App Store